Regional Weather Roundup
Issued by NWS Green Bay, WI

Home | Current Version | Previous Version | Graphics & Text | Print | Product List | Glossary Off
Versions: 1 2 3 4 5 6 7 8 9 10 11 12 13 14 15 16 17 18 19 20 21 22 23 24 25 26 27 28 29 30 31 32 33 34 35 36 37 38 39 40 41 42 43 44 45 46 47 48 49 50

000
ASUS43 KGRB 221610
RWRGRB

NORTH-CENTRAL AND NORTHEAST WISCONSIN REGIONAL WEATHER ROUNDUP
NATIONAL WEATHER SERVICE GREEN BAY WI
1100 AM CDT FRI AUG 22 2014

WIZ005-009-010>012-018-019-221700-
NORTH CENTRAL WISCONSIN

CITY           SKY/WX    TMP DP  RH WIND       PRES   REMARKS
IRONWOOD       CLOUDY    70  66  88 CALM      29.94S
MANITOWISH WTR CLOUDY    69  67  95 E5        29.98S
ARBOR VITAE    CLOUDY    71  68  93 SE5       29.98S FOG
EAGLE RIVER    CLOUDY    69  66  91 SE3       29.99S
LAND O LAKES   CLOUDY    68  66  94 SE3       30.00S FOG
RHINELANDER    LGT RAIN  66  65  96 E5        29.99S FOG
PHILLIPS       CLOUDY    69  67  95 CALM      29.96S
ANTIGO         HVY RAIN  66  66 100 SE6       29.98S VSB 1
TOMAHAWK       CLOUDY    69  67  92 SE5       29.97S
MERRILL        CLOUDY    67  67 100 E5        29.97R FOG
$$

WIZ013-073-221700-
NORTHEAST WISCONSIN

CITY           SKY/WX    TMP DP  RH WIND       PRES   REMARKS
IRON MOUNTAIN  CLOUDY    65  64  97 CALM      29.98S FOG
MARINETTE      CLOUDY    70  64  83 E6        29.97S
OCONTO         CLOUDY    71  70  95 SE5       29.96S
$$

WIZ017-030-035>037-045-221700-
CENTRAL WISCONSIN

CITY           SKY/WX    TMP DP  RH WIND       PRES   REMARKS
MEDFORD        CLOUDY    69  69 100 SE5       29.96S FOG
WAUSAU         CLOUDY    70  68  93 SE7       29.95R
MOSINEE        CLOUDY    70  70 100 SE5       29.97R FOG
MARSHFIELD     CLOUDY    73  72  96 S7        29.95S FOG
WISC RAPIDS    CLOUDY    78  72  81 S7        29.96R
STEVENS POINT  CLOUDY    71  69  92 SE5       29.97R FOG
WAUPACA        CLOUDY    74  73  94 S6        29.96R FOG
SHAWANO        CLOUDY    72  69  90 NE5       29.96S FOG
CLINTONVILLE   CLOUDY    72  68  88 SE5       29.96R FOG
$$

WIZ038-039-048-051-221700-
FOX VALLEY

CITY           SKY/WX    TMP DP  RH WIND       PRES   REMARKS
NWS GREEN BAY  CLOUDY    75  70  84 VRB3      29.96R
APPLETON       PTSUNNY   73  72  94 VRB6      29.97R FOG
OSHKOSH        CLOUDY    77  72  84 S3        29.96R
FOND DU LAC    SUNNY     79  71  76 SE5       29.96S
$$

WIZ022-050-052-221700-
EAST CENTRAL WISCONSIN

CITY           SKY/WX    TMP DP  RH WIND       PRES   REMARKS
STURGEON BAY   CLOUDY    70  66  88 E6        29.98S
MANITOWOC      FOG       69  69 100 SE7       29.97S VSB 1/2
SHEBOYGAN      PTSUNNY   76  72  87 S7        29.97S FOG
$$

LMZ563-521-522-541>543-221700-
LAKESHORE

STATION/POSITION TIME  TEMP    WIND        PRES    VSBY  WAVE
                       AIR SEA DIR/SP/G                  HT/PER
                 (UTC) (F)     (DEG/KT/KT) (MB)    (MI)  (FT/S)
SHEBOYGAN LKSHOR 1600   68 63  160/  8/  9 1014.7F
KEWAUNEE LKSHORE 1600   68     100/  2/  3 1014.0S
TWO RIVERS CG    1500   67 73                N/A     3/8
NORTHPORT PIER   1600   66     140/  3/  4 1015.2S
N MID LAKE BUOY  1600   66 65  170/  4/  4 1014.8R         0
S GREEN BAY BUOY 1600   71     VRB  2      1015.6R
SISTER BAY LKSHO 1500   71     170/  2/  5   N/A
STURGEON BAY CG  1500   65 66   60/  4     1015.8    3/8   3
CHAMBERS ISLAND  1600   69      60/  5/  6 1015.2S
MENOMINEE LKSHOR 1600   67      20/  3/  4 1015.6R
$$


USA.gov is the U.S. government's official web portal to all federal, state and local government web resources and services.